NOAA 16 DEB

Satellite information

Favourite Embed

Satellite Type and Status

DEBRISIN ORBIT

Key statistics

Satellite NOAA 16 DEB at a glance.

Uptime

9214

Days in orbit

Revolutions

≈ 14.5

Per day

Orbit

SSO

Sun Synchronous Orbit

Inclination

98.9

Latest

Satellite identification and parameters

Extended collection of information and parameters for NOAA 16 DEB.

Object identification

Identified? True

Debris? True

Object name: NOAA 16 DEB

International designator: 2000-055PQ

Object number (NORAD): 41710

Object ID (CCSDS): 41710

Country: UNITED STATES OF AMERICA (US)

Current information (Y/N): Y

RCS size: SMALL

Orbital parameters

Period: 99.197 minutes

Inclination: 98.945 deg

SMA: 7098.393 km

Apoapsis: 740.866 km

Periapsis: 699.65 km

RAAN: 164.7801 deg

Eccentricy: 0.00290318

Argument of periapsis: 297.1872 deg

Mean anomaly: 62.6363 deg

Mean motion: 14.51652555 rev/day

Mean motion (dot): 0.00015133 rev/day2

B* drag term: 0.0037580707 1/REarth

Two-line elements (TLE)

Creation date: Dec. 12, 2025, 10:14 a.m.

Reference frame: TEME

Reference center: EARTH

Epoch: Dec. 12, 2025, 7:04 a.m. UTC

TLE line 0: 0 NOAA 16 DEB

TLE line 1: 1 41710U 00055PQ 25346.29474197 .00015133 00000-0 37581-2 0 9995

TLE line 2: 2 41710 98.9450 164.7801 0029032 297.1872 62.6363 14.51652555502012

Live tracking on map

Real-time ground track for satellite NOAA 16 DEB.

In-orbit conjunctions

A list of the most updated potential collisions computed for object NOAA 16 DEB.

Target Orbit TCA Probability of collision Miss distance Type
CZ-6A DEB LEO 2025-01-07 04:33:43 0.0003182881 599.0 (m) DEBRIS
COSMOS 2251 LEO 2024-12-01 05:31:39 0.000310708 490.0 (m) PAYLOAD
DMSP 5D-2 F13 DEB SSO 2024-06-24 22:47:18 0.0001283177 118.0 (m) DEBRIS
THOR BURNER 2 R/B SSO 2024-06-10 14:46:40 0.0001388927 507.0 (m) ROCKET BODY

Associated space launch

The NOAA K, L and M POES satellites begin the fifth generation of improved environmental monitoring in support of NOAA missions. The instrument payload has significant improvements and additions/deletions. The instrument changes have effected the spacecraft subsystems and data formats.

NOAA 16 DEB was lifted into orbit during the mission ‘Titan II SLV | NOAA 16’, on board a Titan II SLV space rocket.

The launch took place on Sept. 21, 2000, 10:22 a.m. from Space Launch Complex 4W.

For more information about the launch, click the button.

Launch to space Titan II SLV | NOAA 16
Titan II SLV | NOAA 16

Agency: N/A

Status: Launch Successful

Launch date: Sept. 21, 2000, 10:22 a.m. UTC

Rocket: Titan II SLV

Launch pad: Space Launch Complex 4W

Location: Vandenberg SFB, CA, USA

...

Latest news about this satellite

There are no fresh news available about this satellite. Check back as we update our databases every day.


Newsletter sign-up

Weekly statistics, charts and insights to help you stay on top of the space industry.